This is the latest recevied weather packets stored in our database for station/object vk4zu-13. If no packets are shown the sender has not sent any weather packets the latest 10 day(s).
| Time | Temp. | Humidity | Pressure | Rain* | Wind** | Luminosity | Snow |
|---|---|---|---|---|---|---|---|
| 1778222074 | 19.44° C | 53% | 1016.9 hPa | 0 mm | - | 46 W/m² | - |
| 1778222015 | 19.44° C | 52% | 1016.8 hPa | 0 mm | - | 39 W/m² | - |
| 1778221960 | 19.44° C | 49% | 1016.9 hPa | 0 mm | - | 28 W/m² | - |
| 1778221875 | 20° C | 49% | 1016.7 hPa | 0 mm | - | 25 W/m² | - |
| 1778221812 | 20° C | 48% | 1016.7 hPa | 0 mm | - | 26 W/m² | - |
| 1778221736 | 20° C | 46% | 1016.7 hPa | 0 mm | - | 26 W/m² | - |
| 1778221664 | 20° C | 44% | 1016.7 hPa | 0 mm | - | 32 W/m² | - |
| 1778221594 | 20° C | 42% | 1016.7 hPa | 0 mm | - | 26 W/m² | - |
| 1778221525 | 20° C | 40% | 1016.8 hPa | 0 mm | - | 26 W/m² | - |
| 1778221454 | 20° C | 49% | 1016.8 hPa | 0 mm | - | 26 W/m² | - |
| 1778221385 | 20° C | 48% | 1016.7 hPa | 0 mm | - | 26 W/m² | - |
| 1778221315 | 20.56° C | 47% | 1016.7 hPa | 0 mm | - | 28 W/m² | - |
| 1778221246 | 20.56° C | 45% | 1016.7 hPa | 0 mm | - | 30 W/m² | - |
| 1778221179 | 20.56° C | 42% | 1016.6 hPa | 0 mm | - | 33 W/m² | - |
| 1778221112 | 20.56° C | 44% | 1016.6 hPa | 0 mm | - | 33 W/m² | - |
| 1778221053 | 20.56° C | 39% | 1016.7 hPa | 0 mm | - | 35 W/m² | - |
| 1778220983 | 20.56° C | 39% | 1016.7 hPa | 0 mm | - | 54 W/m² | - |
| 1778220913 | 20.56° C | 43% | 1016.7 hPa | 0 mm | - | 81 W/m² | - |
| 1778220843 | 20.56° C | 43% | 1016.7 hPa | 0 mm | - | 60 W/m² | - |
| 1778220772 | 20.56° C | 38% | 1016.7 hPa | 0 mm | - | 97 W/m² | - |
| 1778220703 | 21.11° C | 47% | 1016.7 hPa | 0 mm | - | 171 W/m² | - |
| 1778220640 | 21.11° C | 36% | 1016.6 hPa | 0 mm | - | 167 W/m² | - |
| 1778220580 | 21.11° C | 39% | 1016.6 hPa | 0 mm | - | 109 W/m² | - |
| 1778220516 | 21.11° C | 38% | 1016.7 hPa | 0 mm | - | 114 W/m² | - |
| 1778220447 | 21.11° C | 32% | 1016.7 hPa | 0 mm | - | 95 W/m² | - |
* Rain latest hour (hover to see other rain measurements)
** Current wind speed in m/s (hover to see current wind gust speed)